Погода в Палу

Индонезия     0°50′24″N   119°53′25″E
темп.,
°C
ветер,
м/с
пор.,
м/с
влажн.,
%
обл.,
%
осадки,
мм/ч
давл.,
гПа
погр.,
м
9 августа, вт
вт923:00+20в119713 1.1 101215
02:00+20св009765 1.1 101012
05:00+20всв1196100 0.0 101013
08:00+21всв0095100 0.4 101227
11:00+25св128319 1.9 1011614
14:00+25сз1186100 5.8 1009576
17:00+23с119370 4.8 100994
20:00+21всв119787 10.5 101116
10 августа, ср
ср1023:00+20ссв009727 0.5 101211
02:00+19ссз009758 0.6 101013
05:00+19всв119696 0.1 101015
08:00+23вюв118983 0.2 1012177
11:00+23всв119028 2.1 1011125
14:00+25сз118534 4.8 1009638
17:00+22св119599 4.7 101017
20:00+21всв129884 10.2 101244
11 августа, чт
чт1123:00+21в119699 0.6 101330
02:00+20в1196100 0.6 101125
05:00+20всв119683 0.0 101121
08:00+21юз0094100 0.0 101355
11:00+28з115916 0.0 10121131
14:00+25ссз127980 1.4 1010664
17:00+25зсз117846 0.1 1010445
20:00+21св009837 0.8 101213
12 августа, пт
пт1223:00+21всв129843 0.2 101248
02:00+20в229883 0.2 101164
05:00+20в229735 0.0 101253
08:00+23в12846 0.0 1013319
11:00+28всв226416 0.0 10121098
14:00+26св227330 0.4 1009895
17:00+25всв127917 0.8 1009534
20:00+21в11978 0.9 101231
13 августа, сб
сб1323:00+20всв11976 0.0 101326
02:00+20всв129829 0.0 101165
05:00+20в229827 0.0 101158
08:00+24в128310 0.0 1012387
11:00+28всв226216 0.0 10111149
14:00+28всв226525 0.5 10091103
17:00+25в238022 0.5 1009534
20:00+21в11975 0.8 101136